Location: Most
(50.5330°N, 13.6500°E)
Time: 22:34:33
(UTC+01:00)

Envisat - Visible Passes

Search period start: 24 February 2020 00:00
Search period end: 05 March 2020 00:00
Orbit: 764 x 766 km, 98.1° (Epoch: 24 February)

Date Brightness Start Highest point End Pass type
(mag) Time Alt. Az. Time Alt. Az. Time Alt. Az.
24 Feb 6.4 05:20:07 10° NE 05:22:46 14° E 05:25:25 10° ESE visible
24 Feb 4.4 18:17:07 10° S 18:21:59 45° W 18:26:52 10° NNW visible
25 Feb 4.4 06:20:47 10° NNE 06:25:41 44° E 06:30:31 10° S visible
25 Feb 6.3 19:22:12 10° WSW 19:24:53 14° W 19:27:34 10° NW visible
26 Feb 5.8 05:44:35 10° NE 05:48:35 23° E 05:52:34 10° SE visible
26 Feb 5.3 18:43:19 10° SSW 18:47:38 28° W 18:52:00 10° NW visible
27 Feb 6.6 05:09:46 10° ENE 05:11:17 11° E 05:12:49 10° ESE visible
28 Feb 4.9 06:09:36 10° NNE 06:14:19 36° E 06:18:59 10° SSE visible
28 Feb 6.1 19:10:04 10° SW 19:13:25 18° W 19:16:48 10° NW visible
29 Feb 6.1 05:33:37 10° NE 05:37:10 19° E 05:40:42 10° SE visible
29 Feb 5.0 18:31:39 10° SSW 18:36:15 34° W 18:40:53 10° NNW visible
01 Mar 6.7 19:38:30 10° W 19:39:18 10° W 19:40:04 10° WNW visible
02 Mar 5.3 05:58:27 10° NNE 06:02:55 30° E 06:07:21 10° SSE visible
02 Mar 5.9 18:58:08 10° SW 19:01:58 21° W 19:05:51 10° NW visible
03 Mar 6.3 05:22:46 10° NE 05:25:42 15° E 05:28:38 10° ESE visible
03 Mar 4.6 18:20:05 10° SSW 18:24:52 42° W 18:29:42 10° NNW visible
04 Mar 6.4 19:25:28 10° WSW 19:27:49 13° W 19:30:09 10° WNW visible
